Simultaneous Nadir Overpasses (SNOs) Predictions

Prediction of SNOs between AQUA and METOP-C Satellite Orbit:

Table of predicted SNOs for the next 14.0 days since TLE Epoch: 2/10/2024
Index Date (AQUA) Time (AQUA) Lat,Lon (AQUA) SZA (AQUA ) Date (METOP-C) Time (METOP-C) Lat,Lon (METOP-C) SZA (METOP-C ) Distance(km) Time Diff (sec)
1 02/10/2024 17:21:43 -75.07, 97.01 90.59 02/10/2024 17:20:47 -75.08, 97.02 90.58 0.84 56
2 02/10/2024 18:11:08 75.11, -95.46 89.45 02/10/2024 18:11:26 75.11, -95.55 89.45 2.53 18
3 02/13/2024 09:33:36 -75.09,-145.98 91.45 02/13/2024 09:32:28 -75.08,-145.87 91.45 3.34 68
4 02/13/2024 10:23:01 75.14, 21.53 88.60 02/13/2024 10:23:07 75.11, 21.53 88.57 3.84 6
5 02/13/2024 11:12:31 -75.54,-171.93 90.99 02/13/2024 11:13:39 -75.59,-169.70 91.01 61.99 68
6 02/16/2024 01:45:25 -75.00, -28.65 92.46 02/16/2024 01:44:12 -74.94, -29.22 92.50 17.76 73
7 02/16/2024 02:34:52 75.15, 138.58 87.70 02/16/2024 02:34:47 75.14, 138.71 87.69 3.94 5
8 02/16/2024 03:24:15 -75.20, -53.89 92.27 02/16/2024 03:25:28 -75.20, -53.78 92.27 3.08 73
9 02/18/2024 17:57:06 -74.63, 89.39 93.78 02/18/2024 17:55:59 -74.58, 86.89 93.75 73.88 67
10 02/18/2024 18:46:40 75.15,-104.31 86.76 02/18/2024 18:46:27 75.12,-104.28 86.73 3.23 13
11 02/18/2024 19:36:03 -75.19, 63.23 93.21 02/18/2024 19:37:08 -75.19, 63.24 93.23 0.75 65
12 02/21/2024 10:58:27 75.12, 12.86 85.77 02/21/2024 10:58:07 75.13, 12.83 85.78 1.22 20
13 02/21/2024 11:47:51 -75.21,-179.73 94.15 02/21/2024 11:48:48 -75.20,-179.63 94.17 3.20 57
14 02/24/2024 03:10:13 75.12, 129.95 84.79 02/24/2024 03:09:47 75.13, 129.91 84.80 1.11 26



Historial Predications of SNOs between AQUA and METOP-C
